Weather History for KUNV - February, 2014

Change the Weather History Date:

Friday, February 28, 2014

  Actual Average Record
Temperature  
Mean Temperature 10 °F -  
Max Temperature 21 °F 41 °F 62 °F (1954)
Min Temperature 0 °F 22 °F -13 °F (1934)
Degree Days  
Heating Degree Days 54    
Moisture  
Dew Point -14 °F    
Average Humidity 36    
Maximum Humidity 52    
Minimum Humidity 18    
Precipitation  
Precipitation 0.00 in - - ()
Sea Level Pressure  
Sea Level Pressure 30.23 in    
Wind  
Wind Speed 3 mph (West)    
Max Wind Speed 9 mph    
Max Gust Speed -    
Visibility 10 miles    
Events      
Averages and records for this station are not official NWS values.
T = Trace of Precipitation, MM = Missing Value Source: NWS Daily Summary

Daily Weather History Graph

Daily Weather History Graph

Search for Another Location

Airport or City:

Trip Planner

Search our weather history database for the weather conditions in past years. The results will help you decide how hot, cold, wet, or windy it might be!

Date:

Astronomy

Feb. 28, 2014 Rise Set
Actual Time 6:46 AM EST 6:01 PM EST
Civil Twilight 6:19 AM EST 6:28 PM EST
Nautical Twilight 5:47 AM EST 7:00 PM EST
Astronomical Twilight 5:15 AM EST 7:32 PM EST
Moon 6:00 AM EST (2/28) 5:36 PM EST (2/28)
Length of Visible Light 12h 09m
Length of Day
11h 14m
Waning Crescent, 1% of the Moon is Illuminated
Feb 28
Waning Crescent
Mar 1
New
Mar 8
First Quarter
Mar 16
Full
Mar 23
Last Quarter

Hourly Weather History & Observations

Time (EST) Temp. Windchill Dew Point Humidity Pressure Visibility Wind Dir Wind Speed Gust Speed Precip Events Conditions
12:15 AM 5.5 °F -1.5 °F -16.1 °F 36% 30.11 in 10.0 mi NNW 3.5 mph - N/A   Clear
12:35 AM 5.4 °F -1.7 °F -15.7 °F 37% 30.11 in 10.0 mi NW 3.5 mph - N/A   Clear
12:55 AM 5.0 °F -6.9 °F -15.2 °F 39% 30.12 in 10.0 mi NW 6.9 mph - N/A   Clear
1:15 AM 5.0 °F -4.1 °F -14.8 °F 40% 30.13 in 10.0 mi NW 4.6 mph - N/A   Clear
1:35 AM 4.6 °F -2.5 °F -14.3 °F 41% 30.14 in 10.0 mi NW 3.5 mph - N/A   Clear
1:55 AM 4.5 °F -2.7 °F -14.3 °F 42% 30.15 in 10.0 mi WNW 3.5 mph - N/A   Clear
2:15 AM 4.1 °F - -14.3 °F 42% 30.15 in 10.0 mi Calm Calm - N/A   Clear
2:35 AM 3.9 °F - -14.1 °F 43% 30.15 in 10.0 mi Calm Calm - N/A   Clear
2:55 AM 3.7 °F -3.6 °F -14.8 °F 42% 30.15 in 10.0 mi NW 3.5 mph - N/A   Clear
3:15 AM 3.6 °F - -14.8 °F 42% 30.16 in 10.0 mi Calm Calm - N/A   Clear
3:35 AM 3.2 °F - -14.8 °F 43% 30.17 in 10.0 mi Calm Calm - N/A   Clear
3:55 AM 3.0 °F -4.4 °F -14.8 °F 43% 30.18 in 10.0 mi WNW 3.5 mph - N/A   Clear
4:15 AM 2.7 °F - -14.8 °F 44% 30.18 in 10.0 mi Calm Calm - N/A   Clear
4:35 AM 3.0 °F - -14.4 °F 44% 30.19 in 10.0 mi Calm Calm - N/A   Clear
4:55 AM 2.8 °F -4.6 °F -13.9 °F 46% 30.20 in 10.0 mi West 3.5 mph - N/A   Clear
5:15 AM 2.3 °F -7.2 °F -13.2 °F 49% 30.21 in 10.0 mi West 4.6 mph - N/A   Clear
5:35 AM 2.1 °F -9.0 °F -13.0 °F 49% 30.22 in 10.0 mi West 5.8 mph - N/A   Scattered Clouds
5:53 AM 1.4 °F -9.9 °F -13.0 °F 51% 30.23 in 10.0 mi WNW 5.8 mph - N/A   Clear
6:00 AM 1.4 °F -8.3 °F -13.5 °F 50% 30.23 in 10.0 mi West 4.6 mph - N/A   Scattered Clouds
6:15 AM 0.5 °F -11.0 °F -13.4 °F 52% 30.24 in 10.0 mi West 5.8 mph - N/A   Scattered Clouds
6:35 AM 1.0 °F -10.3 °F -13.4 °F 51% 30.25 in 10.0 mi WNW 5.8 mph - N/A   Scattered Clouds
6:53 AM 1.4 °F - -13.0 °F 51% 30.26 in 10.0 mi Calm Calm - N/A   Clear
7:53 AM 3.2 °F -7.8 °F -13.0 °F 47% 30.29 in 10.0 mi WNW 5.8 mph - N/A   Clear
8:53 AM 8.6 °F - -9.4 °F 44% 30.32 in 10.0 mi Calm Calm - N/A   Clear
9:53 AM 8.6 °F 0.1 °F -14.8 °F 34% 30.32 in 10.0 mi Variable 4.6 mph - N/A   Clear
10:53 AM 10.4 °F 2.2 °F -13.0 °F 34% 30.33 in 10.0 mi Variable 4.6 mph - N/A   Clear
11:53 AM 14.0 °F 5.1 °F -13.0 °F 29% 30.33 in 10.0 mi SW 5.8 mph - N/A   Clear
12:53 PM 15.8 °F - -16.6 °F 23% 30.30 in 10.0 mi Calm Calm - N/A   Clear
1:50 PM 17.6 °F - -20.2 °F 18% 30.28 in 10.0 mi Calm Calm - N/A   Clear
2:50 PM 19.4 °F - -16.6 °F 20% 30.27 in 10.0 mi Calm Calm - N/A   Clear
3:53 PM 21.2 °F 10.9 °F -13.0 °F 22% 30.26 in 10.0 mi SSW 9.2 mph - N/A   Clear
4:50 PM 21.2 °F 10.9 °F -11.2 °F 24% 30.25 in 10.0 mi SSW 9.2 mph - N/A   Clear
5:53 PM 19.4 °F 12.8 °F -16.6 °F 20% 30.25 in 10.0 mi SSW 4.6 mph - N/A   Clear
6:53 PM 17.6 °F - -16.6 °F 21% 30.25 in 10.0 mi Calm Calm - N/A   Clear
7:53 PM 17.6 °F 12.3 °F -14.8 °F 23% 30.25 in 10.0 mi ESE 3.5 mph - N/A   Clear
8:53 PM 17.6 °F - -14.8 °F 23% 30.25 in 10.0 mi Calm Calm - N/A   Clear
9:15 PM 16.0 °F - -12.8 °F 27% 30.26 in 10.0 mi Calm Calm - N/A   Clear
9:35 PM 16.3 °F - -12.5 °F 27% 30.25 in 10.0 mi Calm Calm - N/A   Clear
9:55 PM 16.5 °F - -13.2 °F 26% 30.26 in 10.0 mi Calm Calm - N/A   Clear
10:15 PM 16.3 °F - -13.4 °F 26% 30.26 in 10.0 mi Calm Calm - N/A   Clear
10:35 PM 16.2 °F - -13.4 °F 26% 30.25 in 10.0 mi Calm Calm - N/A   Clear
10:55 PM 15.8 °F - -12.6 °F 28% 30.25 in 10.0 mi Calm Calm - N/A   Clear
11:15 PM 15.8 °F 10.2 °F -12.3 °F 28% 30.25 in 10.0 mi SE 3.5 mph - N/A   Clear
11:35 PM 15.3 °F 9.6 °F -10.5 °F 31% 30.24 in 10.0 mi SSE 3.5 mph - N/A   Clear
11:55 PM 15.4 °F - -11.0 °F 30% 30.24 in 10.0 mi Calm Calm - N/A   Clear